EHI
0 0 0 0 0 0 0 0 0 0 0 0 0 0 0 0 0 0 0 0 0 0 0 0 0 0 0 0 1 1 1 0 0 0 0 0 0 0 0 0 0 0 0 0
0 0 0 0 0 0 0 0 0 0 0 0 0 0 0 0 0 0 0 0 0 0 0 0 0 0 0 0 0 0 0 0 0 0 0 0 0 0 0 0 0 0 0 0
0 0 0 0 0 0 0 0 0 0 0 0 0 0 0 0 0 0 0 0 0 0 0 0 0 0 0 0 0 0 0 0 0 0 0 0 0 0 0 0 0 0 0 0
0 0 0 0 0 0 0 0 0 0 0 0 0 0 0 0 0 0 0 0 0 0 0 0 0 0 0 0 0 0 0 0 0 0 0 0 0 0 0 0 0 0 0 0
0 0 0 0 0 0 0 0 0 0 0 0 0 0 0 0 0 0 0 0 0 0 0 0 0 0 0 0 0 0 0 0 0 0 0 0 0 0 0 0 0 0 0 0
0 0 0 0 0 0 0 0 0 0 0 0 0 0 0 0 0 0 0 0 0 0 0 0 0 0 0 0 0 0 0 0 0 0 0 0 0 0 0 0 0 0 0 0
0 0 0 0 0 0 0 0 0 0 0 0 0 0 0 0 0 0 0 0 0 0 0 0 0 0 0 0 0 0 1 1 1 0 0 0 0 0 0 0 0 0 0 0
0 0 0 0 0 0 0 0 0 0 0 0 0 0 0 0 0 0 0 0 0 0 0 0 0 0 0 0 0 0 1 2 2 1 0 0 0 0 0 0 0 0 0 0
0 0 0 0 0 0 0 0 0 0 0 0 0 0 0 0 0 0 0 0 0 0 0 0 0 0 0 0 0 0 0 1 1 1 0 0 0 0 0 0 0 0 0 0
0 0 0 0 0 0 0 0 0 0 0 0 0 0 0 0 0 0 0 0 0 0 0 0 0 0 0 0 0 0 0 0 0 0 0 0 0 0 0 0 0 0 0 0
0 0 0 0 0 0 0 0 0 0 0 0 0 0 0 0 0 0 0 0 0 0 0 0 0 0 0 0 0 0 0 0 0 0 0 0 0 0 0 0 0 0 0 0
0 0 0 0 0 0 0 0 0 0 0 0 0 0 0 0 0 0 0 0 0 0 0 0 0 0 0 1 1 0 0 0 0 0 0 0 0 0 0 0 0 0 0 0
0 0 0 0 0 0 0 0 0 0 0 0 0 0 0 0 0 0 0 0 0 0 0 0 0 0 1 2 2 1 0 0 0 0 0 0 0 0 0 0 0 0 0 0
0 0 0 0 0 0 0 0 0 0 0 0 0 0 0 0 0 0 0 0 0 0 1 1 1 1 2 3 2 1 0 0 0 0 0 0 0 0 0 0 0 0 0 0
0 0 0 0 0 0 0 0 0 0 0 0 0 0 0 0 0 0 0 0 0 0 1 2 2 2 3 3 2 1 0 0 0 0 0 0 0 0 0 0 0 0 0 0
0 0 0 0 0 0 0 0 0 0 0 0 0 0 0 0 0 0 0 0 0 0 1 1 1 1 2 3 2 1 0 0 0 0 0 0 0 0 0 0 0 0 0 0
0 0 0 0 0 0 0 0 0 0 0 0 0 0 0 0 0 0 0 0 0 0 0 0 0 0 1 2 2 1 0 0 0 0 0 0 0 0 0 0 0 0 0 0
0 0 0 0 0 0 0 0 0 0 0 0 0 0 0 0 0 0 0 0 0 0 0 0 0 0 0 1 1 0 0 0 0 0 0 0 0 0 0 0 0 0 0 0
0 0 0 0 0 0 0 0 0 0 0 0 0 0 0 0 0 0 0 0 0 0 0 0 0 0 0 0 0 1 1 0 0 0 0 0 0 0 0 0 0 0 0 0
0 0 0 0 0 0 0 0 0 0 0 0 0 0 0 0 0 0 0 0 0 0 0 0 0 0 0 0 0 1 2 1 0 0 0 0 0 0 0 0 0 0 0 0
0 0 0 0 0 0 0 0 0 0 0 0 0 0 0 0 0 0 0 0 0 0 0 0 0 0 0 0 0 1 2 2 0 0 0 0 0 0 0 0 0 0 0 0
0 0 0 0 0 0 0 0 0 0 0 0 0 0 0 0 0 0 0 0 0 0 0 0 0 0 0 0 0 1 1 1 0 0 0 0 0 0 0 0 0 0 0 0
0 0 0 0 0 0 0 0 0 0 0 0 0 0 0 0 0 0 0 0 0 0 0 0 0 0 0 0 0 0 0 0 0 0 0 0 0 0 0 0 0 0 0 0
0 0 0 0 0 0 0 0 0 0 0 0 0 0 0 0 0 0 0 0 0 0 0 0 0 0 0 0 0 0 0 0 0 0 0 0 0 0 0 0 0 0 0 0
0 0 0 0 0 0 0 0 0 0 0 0 0 0 0 0 0 0 0 0 0 0 0 0 0 0 0 0 0 0 0 0 0 0 0 0 0 0 0 0 0 0 0 0
0 0 0 0 0 0 0 0 0 0 0 0 0 0 0 0 0 0 0 0 0 0 0 0 0 0 0 0 0 0 0 0 0 0 0 0 0 0 0 0 0 0 0 0
Wind_Speed
1 2 2 5 6 5 3 2 2 4 4 4 4 4 6 6 6 6 6 6 6 6 5 4 4 4 5 5 5 5 4 3 3 2 2 2 2 1 2 2 3 3 3 3
3 3 6 4 3 3 2 2 1 2 3 4 4 3 4 6 7 8 8 8 8 5 4 4 4 4 5 5 5 5 5 4 3 2 2 2 2 1 1 1 2 2 3 3
4 6 3 2 2 2 2 3 4 3 1 1 2 2 2 3 4 5 6 7 7 8 7 6 6 5 5 5 6 6 5 5 4 4 3 3 3 2 2 2 1 1 2 2
3 4 2 1 2 3 2 3 3 3 2 2 2 2 5 5 4 6 7 7 7 7 7 6 6 6 6 6 6 6 5 5 4 5 4 5 3 2 2 2 1 1 2 2
3 2 1 2 3 3 3 2 1 1 2 1 1 2 6 2 5 8 8 9 8 8 8 8 7 7 6 6 5 5 5 5 4 5 6 5 3 2 2 1 2 1 1 2
4 3 2 3 2 2 1 4 5 5 3 2 4 3 5 4 8 8 8 9 8 8 8 7 6 5 5 5 5 5 5 4 4 5 5 5 5 4 4 3 3 1 1 1
4 5 3 1 0 2 3 5 4 4 3 4 2 2 6 6 6 8 10 10 8 8 7 7 6 6 5 5 5 6 6 5 4 5 5 5 5 5 6 5 4 3 2 1
1 4 3 2 4 3 3 7 6 3 3 4 2 2 5 4 2 4 6 8 7 7 7 8 8 7 6 6 6 6 6 5 5 5 5 4 5 4 3 5 5 4 3 3
3 5 4 2 2 5 3 2 6 5 1 1 3 2 4 3 3 4 5 7 7 7 7 7 7 6 6 5 5 6 6 5 5 5 4 4 4 4 4 4 4 3 3 3
4 2 4 3 1 1 4 5 4 4 2 2 3 3 4 3 2 3 4 5 6 6 6 5 6 6 5 5 4 4 5 5 5 5 4 4 4 4 4 4 5 5 4 4
3 2 4 3 2 3 2 2 3 3 3 4 2 5 4 6 5 5 5 5 6 6 6 5 5 5 5 4 4 3 3 3 3 4 4 3 3 3 3 4 5 5 5 5
2 4 2 4 4 2 4 4 5 4 3 3 3 6 4 4 5 5 5 4 4 5 5 5 5 4 4 4 3 3 3 3 3 3 4 4 3 3 3 3 4 5 5 4
3 5 1 5 5 3 0 2 4 5 4 3 3 5 3 0 2 3 4 4 4 4 3 3 3 4 4 4 4 3 3 3 2 2 3 3 3 3 3 3 3 4 4 4
5 4 5 6 6 3 2 3 2 5 3 4 5 5 3 1 2 3 4 5 5 5 4 3 3 2 3 3 4 4 3 3 3 3 3 3 3 4 4 3 3 3 4 4
4 2 3 5 5 3 4 4 3 4 7 7 6 6 6 6 6 5 4 5 4 4 4 4 4 3 2 2 3 3 3 3 3 3 3 3 3 3 3 3 3 3 4 4
3 2 0 3 3 3 4 5 5 5 4 5 4 5 5 4 3 3 4 6 6 5 5 5 4 3 3 3 2 3 3 3 3 4 3 3 2 3 3 3 3 3 3 3
1 3 2 3 4 2 5 4 4 3 3 5 6 7 3 3 4 5 6 6 6 6 5 5 5 5 4 4 3 3 3 3 3 3 3 3 3 3 3 3 3 3 3 3
4 3 2 1 1 5 6 2 2 3 2 2 3 3 4 5 5 4 5 6 6 5 5 5 5 4 4 3 3 2 2 3 3 3 3 3 3 3 2 3 3 3 3 3
5 5 3 2 3 6 4 2 1 2 3 2 2 2 2 3 2 2 1 3 5 6 5 4 5 4 3 3 3 3 2 2 2 3 3 3 4 3 3 3 3 3 2 2
3 4 4 3 3 6 5 4 2 2 3 3 1 2 2 3 1 4 3 2 2 2 3 3 3 2 3 3 3 4 3 3 4 4 4 4 4 4 4 4 3 2 2 3
1 1 3 4 4 6 6 4 2 3 6 3 1 2 2 3 5 5 3 2 2 3 3 3 3 2 3 3 4 4 3 4 4 4 3 3 4 4 4 3 2 2 2 2
4 3 4 4 5 8 4 0 3 5 3 1 1 1 2 2 1 1 2 2 2 2 2 3 3 2 2 3 4 3 4 5 3 2 3 3 3 3 3 3 2 2 3 3
4 6 5 6 7 5 2 3 3 3 2 2 1 2 2 2 1 1 2 2 2 2 2 2 3 3 2 3 4 4 4 3 3 3 3 3 3 2 3 3 3 2 2 2
4 1 2 2 4 4 2 1 1 2 2 2 2 2 2 2 3 3 3 2 2 2 3 2 3 3 3 3 3 4 3 3 3 3 3 3 3 3 2 3 3 3 3 3
5 1 1 3 4 3 3 2 2 1 0 0 1 1 2 2 2 3 3 3 3 3 3 3 3 4 4 3 3 3 3 3 3 3 2 2 3 3 3 3 3 3 4 5
4 4 4 6 5 3 5 4 2 1 2 2 1 1 1 2 3 3 3 3 3 3 3 3 3 4 4 4 3 3 3 4 4 3 2 2 2 2 3 2 1 2 2 3
Wind_Direction
334 81 213 224 209 209 197 182 201 217 205 158 181 193 198 188 176 180 182 182 185 193 196 172 154 143 135 135 137 137 126 123 114 110 108 103 97 77 60 74 84 87 85 85
35 264 239 223 228 227 223 174 206 249 205 171 183 211 203 184 187 184 185 189 191 188 177 176 159 152 152 154 152 150 149 144 137 137 139 139 136 125 105 66 71 85 90 88
192 245 244 219 257 246 244 192 200 200 184 128 121 328 250 226 204 192 191 186 187 186 182 181 172 169 163 163 165 164 166 157 151 137 112 92 71 61 53 55 53 65 102 93
240 268 274 253 249 196 248 244 191 167 121 247 163 251 265 218 213 209 202 192 191 191 185 182 177 175 174 176 170 166 166 162 156 141 140 143 143 155 190 181 168 120 104 107
261 261 233 227 232 187 215 236 165 159 144 317 269 186 280 200 217 223 208 199 198 191 185 185 184 183 179 173 167 165 164 163 161 156 157 153 152 169 167 148 139 126 96 106
255 267 231 221 242 202 171 40 33 46 70 302 240 182 270 221 213 210 204 198 196 190 186 185 185 175 172 167 162 157 161 169 165 162 165 163 163 159 153 159 157 155 136 101
317 302 278 225 335 348 83 79 33 3 11 259 253 165 250 246 216 196 193 192 191 183 176 177 174 172 172 171 171 164 166 174 175 171 176 180 176 172 176 178 175 170 168 177
241 288 267 217 182 189 170 138 151 193 230 282 330 218 262 279 203 163 167 168 169 174 175 177 180 178 177 176 175 173 176 180 179 180 186 188 181 176 186 187 177 180 181 187
190 257 284 240 193 149 141 165 168 148 210 270 292 300 319 8 67 107 134 148 163 174 178 179 178 176 174 174 179 183 183 188 186 186 182 184 185 185 190 188 177 178 179 176
161 244 292 294 49 77 152 154 103 123 166 246 286 257 236 234 191 140 142 159 172 173 169 165 169 174 176 176 181 184 185 192 190 181 184 185 186 193 188 175 179 181 179 168
140 160 303 348 196 198 127 119 119 131 161 165 240 269 233 200 187 171 173 171 168 163 163 166 171 175 169 165 170 177 185 186 192 187 181 173 176 180 182 179 183 179 173 167
137 131 243 266 271 212 166 170 146 153 219 173 179 266 287 186 182 171 172 171 161 156 162 163 162 157 156 163 170 175 183 185 202 195 180 177 168 159 169 180 182 174 170 171
119 112 66 337 335 346 201 188 154 142 133 163 177 259 310 90 151 168 164 164 160 154 150 142 142 156 172 178 179 186 187 188 196 178 174 170 160 158 169 176 177 173 167 168
115 120 163 200 229 233 250 251 173 135 161 203 213 229 276 257 181 182 172 166 164 160 152 145 148 168 184 190 189 188 201 195 182 169 169 183 182 176 175 172 171 172 168 168
101 143 217 234 250 246 244 248 225 194 190 191 217 211 229 217 202 193 177 159 150 155 157 168 175 181 185 192 199 198 205 197 178 169 176 194 201 178 164 162 166 169 171 175
95 143 262 288 277 269 268 263 247 234 205 195 204 236 232 213 168 163 173 164 162 171 179 182 178 174 189 193 199 202 205 199 175 174 187 185 170 169 170 167 162 155 170 176
129 134 125 270 291 337 279 254 226 217 204 183 211 231 201 174 174 182 185 178 175 182 185 187 189 190 197 197 191 194 202 186 172 179 185 172 172 172 185 179 159 163 174 172
155 136 147 229 5 235 244 258 181 174 239 223 202 211 193 185 185 193 183 179 182 183 185 193 196 197 203 199 195 186 171 166 171 175 177 175 176 180 174 172 174 178 174 177
165 151 144 153 221 269 290 298 244 193 271 270 204 200 165 140 86 354 252 187 191 190 189 197 198 195 191 191 187 167 168 173 178 193 190 185 177 176 175 179 188 183 173 178
124 130 138 156 200 236 248 268 280 115 267 296 183 176 178 127 134 259 258 197 188 187 181 183 176 164 175 195 175 163 181 185 205 204 199 189 181 177 183 189 188 179 177 184
118 128 174 190 224 257 258 281 52 161 237 260 213 177 164 182 209 227 224 201 184 184 180 168 159 167 194 190 168 174 189 208 217 203 187 184 183 184 184 177 173 174 167 159
185 187 198 182 213 248 265 49 174 217 237 243 228 195 166 199 220 180 187 201 199 201 190 172 163 185 203 184 170 182 210 218 200 181 179 189 195 194 175 164 180 181 166 167
203 201 196 193 216 242 231 201 218 190 195 226 221 235 194 181 208 205 206 210 216 219 210 192 178 193 216 198 178 190 220 212 185 172 191 198 196 191 177 175 186 194 177 178
276 234 165 228 256 260 256 218 226 194 196 224 221 220 214 220 215 209 213 222 228 235 222 207 185 195 228 225 205 204 207 184 169 178 197 196 185 189 189 185 185 191 195 193
252 242 223 252 273 311 306 274 229 210 177 25 317 263 224 193 218 214 215 222 228 232 229 206 202 209 226 222 220 217 194 172 174 183 197 200 191 186 191 194 198 204 214 204
237 206 200 233 237 217 253 267 253 221 241 226 224 302 278 205 211 226 232 232 230 233 229 213 219 224 230 223 222 217 196 179 178 190 203 202 195 190 190 190 225 281 256 237